Date String (YYYY-MM-DD hh:mm:ss) UTC,Instrument flags,Ambient pressure (hPa),Sample flow (lpm),Bypass flow (lpm),Sample temperature (°C),Ambient temperature (°C),ASC tube jacket temperature (°C),LED temperature (°C),Box temperature (°C),Sample RH (%),Span deviation,Mass concentration (μg/m³),Mass concentration (μg/m³),Mass concentration (μg/m³)
DateTimeUTC,F1_M11,P_M11,Q1_M11,Q2_M11,T1_M11,T2_M11,T3_M11,T4_M11,T5_M11,U1_M11,ZSPAN_M11,X0_M11,X2_M11,X1_M11
2022-03-17 22:00:00,,0828.1,5.00,0.00,22.7,22.1,00.0,31.6,24.6,18.1,0000.0,0004.58,0002.48,0002.01
2022-03-17 22:01:00,,0828.1,5.00,0.00,22.8,22.1,00.0,31.6,24.6,18.0,0000.0,0004.17,0002.50,0002.03
2022-03-17 22:02:00,,0828.2,5.00,0.00,22.8,22.1,00.0,31.6,24.6,17.9,0000.0,0004.22,0002.52,0002.03
2022-03-17 22:03:00,,0828.2,5.00,0.00,22.7,22.1,00.0,31.6,24.6,17.9,0000.0,0004.06,0002.47,0002.03
2022-03-17 22:04:00,,0828.2,4.99,0.00,22.7,22.1,00.0,31.6,24.6,18.0,0000.0,0004.01,0002.46,0002.03
2022-03-17 22:05:00,,0828.2,5.01,0.00,22.7,22.1,00.0,31.7,24.6,18.0,0000.0,0004.07,0002.51,0002.04
2022-03-17 22:06:00,,0828.1,5.00,0.00,22.7,22.1,00.0,31.7,24.6,18.1,0000.0,0004.19,0002.56,0002.07
2022-03-17 22:07:00,,0828.2,4.99,0.00,22.7,22.1,00.0,31.7,24.6,18.2,0000.0,0004.46,0002.66,0002.11
2022-03-17 22:08:00,,0828.1,4.99,0.00,22.7,22.1,00.0,31.7,24.5,18.3,0000.0,0004.49,0002.74,0002.16
2022-03-17 22:09:00,,0828.2,5.00,0.00,22.7,22.1,00.0,31.7,24.5,18.3,0000.0,0005.51,0002.78,0002.20
2022-03-17 22:10:00,,0828.1,5.00,0.00,22.7,22.0,00.0,31.7,24.5,18.3,0000.0,0005.26,0002.74,0002.20
2022-03-17 22:11:00,,0828.1,5.00,0.00,22.7,22.0,00.0,31.7,24.5,18.3,0000.0,0005.22,0002.77,0002.22
2022-03-17 22:12:00,,0828.1,5.00,0.00,22.7,22.0,00.0,31.6,24.5,18.4,0000.0,0005.08,0002.75,0002.24
2022-03-17 22:13:00,,0828.0,5.00,0.00,22.7,22.0,00.0,31.6,24.6,18.5,0000.0,0005.11,0002.79,0002.28
2022-03-17 22:14:00,,0828.1,5.00,0.00,22.7,22.0,00.0,31.6,24.5,18.6,0000.0,0005.16,0002.85,0002.35
2022-03-17 22:15:00,,0828.0,5.02,0.00,22.7,21.9,00.0,31.6,24.5,18.6,0000.0,0005.27,0002.93,0002.42
2022-03-17 22:16:00,,0828.0,5.00,0.00,22.7,21.9,00.0,31.6,24.5,18.6,0000.0,0005.36,0003.01,0002.50
2022-03-17 22:17:00,,0828.2,5.00,0.00,22.6,21.9,00.0,31.6,24.5,18.7,0000.0,0005.49,0003.10,0002.60
2022-03-17 22:18:00,,0828.3,4.99,0.00,22.6,21.9,00.0,31.6,24.5,18.7,0000.0,0005.32,0003.12,0002.67
2022-03-17 22:19:00,,0828.0,5.00,0.00,22.6,21.9,00.0,31.6,24.5,18.7,0000.0,0005.67,0003.15,0002.74
2022-03-17 22:20:00,,0828.0,5.00,0.00,22.6,21.9,00.0,31.6,24.4,18.7,0000.0,0004.79,0003.17,0002.81
2022-03-17 22:21:00,,0828.1,5.01,0.00,22.6,21.9,00.0,31.6,24.4,18.7,0000.0,0004.83,0003.19,0002.86
2022-03-17 22:22:00,,0828.1,5.00,0.00,22.6,21.9,00.0,31.6,24.4,18.8,0000.0,0006.05,0003.21,0002.90
2022-03-17 22:23:00,,0828.1,5.01,0.00,22.6,21.9,00.0,31.6,24.4,18.8,0000.0,0006.31,0003.23,0002.94
2022-03-17 22:24:00,,0828.0,5.00,0.00,22.6,21.9,00.0,31.6,24.3,18.8,0000.0,0006.35,0003.25,0002.99
2022-03-17 22:25:00,,0828.0,5.00,0.00,22.6,21.9,00.0,31.6,24.3,18.7,0000.0,0006.66,0003.32,0003.02
2022-03-17 22:26:00,,0828.0,5.00,0.00,22.6,21.8,00.0,31.6,24.3,18.8,0000.0,0006.84,0003.35,0003.06
2022-03-17 22:27:00,,0828.0,5.00,0.00,22.6,21.8,00.0,31.6,24.3,18.8,0000.0,0006.87,0003.36,0003.07
2022-03-17 22:28:00,,0827.9,5.00,0.00,22.6,21.8,00.0,31.6,24.3,18.9,0000.0,0006.88,0003.39,0003.08
2022-03-17 22:29:00,,0828.0,5.00,0.00,22.5,21.8,00.0,31.6,24.3,18.9,0000.0,0006.92,0003.41,0003.10
2022-03-17 22:30:00,,0828.1,5.00,0.00,22.5,21.8,00.0,31.6,24.3,18.9,0000.0,0006.56,0003.42,0003.12
2022-03-17 22:31:00,,0828.3,5.02,0.00,22.5,21.8,00.0,31.6,24.3,18.8,0000.0,0006.53,0003.42,0003.12
2022-03-17 22:32:00,,0828.2,5.00,0.00,22.5,21.8,00.0,31.5,24.3,18.9,0000.0,0006.59,0003.44,0003.13
2022-03-17 22:33:00,,0828.2,5.00,0.00,22.5,21.8,00.0,31.5,24.3,18.9,0000.0,0005.39,0003.43,0003.12
2022-03-17 22:34:00,,0828.0,4.99,0.00,22.5,21.8,00.0,31.5,24.2,19.0,0000.0,0005.26,0003.44,0003.12
2022-03-17 22:35:00,,0828.0,4.99,0.00,22.5,21.8,00.0,31.5,24.2,19.1,0000.0,0005.20,0003.42,0003.09
2022-03-17 22:36:00,,0828.0,5.00,0.00,22.4,21.7,00.0,31.5,24.2,19.1,0000.0,0005.05,0003.39,0003.07
2022-03-17 22:37:00,,0828.0,5.00,0.00,22.4,21.7,00.0,31.5,24.1,19.3,0000.0,0004.93,0003.34,0003.04
2022-03-17 22:38:00,,0828.0,5.00,0.00,22.4,21.6,00.0,31.5,24.1,19.3,0000.0,0005.70,0003.32,0003.00
2022-03-17 22:39:00,,0828.0,5.02,0.00,22.4,21.6,00.0,31.5,24.1,19.2,0000.0,0005.59,0003.29,0002.98
2022-03-17 22:40:00,,0828.0,5.00,0.00,22.3,21.6,00.0,31.5,24.0,19.1,0000.0,0005.50,0003.27,0002.98
2022-03-17 22:41:00,,0828.0,4.99,0.00,22.3,21.6,00.0,31.4,24.0,19.1,0000.0,0005.43,0003.24,0002.97
2022-03-17 22:42:00,,0827.9,5.00,0.00,22.3,21.5,00.0,31.4,24.0,19.3,0000.0,0005.47,0003.24,0002.96
2022-03-17 22:43:00,,0827.9,5.01,0.00,22.3,21.5,00.0,31.4,24.0,19.5,0000.0,0005.40,0003.22,0002.92
2022-03-17 22:44:00,,0828.0,5.00,0.00,22.2,21.5,00.0,31.4,23.9,19.6,0000.0,0005.37,0003.21,0002.90
2022-03-17 22:45:00,,0828.0,5.00,0.00,22.2,21.5,00.0,31.4,23.9,19.7,0000.0,0005.26,0003.18,0002.88
2022-03-17 22:46:00,,0828.0,4.99,0.00,22.2,21.4,00.0,31.3,23.9,19.8,0000.0,0005.19,0003.15,0002.83
2022-03-17 22:47:00,,0827.9,5.00,0.00,22.1,21.4,00.0,31.3,23.8,19.9,0000.0,0004.98,0003.08,0002.77
2022-03-17 22:48:00,,0828.0,5.00,0.00,22.1,21.4,00.0,31.3,23.8,19.9,0000.0,0004.77,0003.00,0002.71
2022-03-17 22:49:00,,0828.0,5.01,0.00,22.1,21.4,00.0,31.3,23.8,19.8,0000.0,0003.82,0002.94,0002.68
2022-03-17 22:50:00,,0828.0,5.00,0.00,22.1,21.3,00.0,31.3,23.7,19.7,0000.0,0003.71,0002.86,0002.61
2022-03-17 22:51:00,,0827.9,4.99,0.00,22.0,21.3,00.0,31.2,23.7,19.8,0000.0,0003.61,0002.75,0002.51
2022-03-17 22:52:00,,0828.0,5.00,0.00,22.0,21.2,00.0,31.2,23.7,19.8,0000.0,0003.52,0002.70,0002.43
2022-03-17 22:53:00,,0828.0,5.00,0.00,22.0,21.2,00.0,31.2,23.6,19.7,0000.0,0003.32,0002.63,0002.37
2022-03-17 22:54:00,,0828.0,4.99,0.00,21.9,21.1,00.0,31.2,23.6,19.7,0000.0,0003.27,0002.59,0002.32
2022-03-17 22:55:00,,0828.0,5.00,0.00,21.9,21.1,00.0,31.1,23.5,19.9,0000.0,0003.22,0002.55,0002.29
2022-03-17 22:56:00,,0828.0,5.00,0.00,21.9,21.0,00.0,31.1,23.5,20.0,0000.0,0003.20,0002.53,0002.27
2022-03-17 22:57:00,,0827.9,5.00,0.00,21.8,21.0,00.0,31.1,23.4,20.0,0000.0,0003.16,0002.49,0002.25
2022-03-17 22:58:00,,0828.0,5.00,0.00,21.8,21.0,00.0,31.1,23.4,19.9,0000.0,0003.25,0002.51,0002.24
2022-03-17 22:59:00,,0828.0,5.01,0.00,21.7,20.9,00.0,31.0,23.4,19.9,0000.0,0003.29,0002.53,0002.26
